Baton Rouge, LA

10:48 PM CDT on July 27, 2017 (GMT -0500)
Baton Rouge Metro-Ryan

Weather History for KBTR - June, 2013

Change the Weather History Date:

Sunday, June 16, 2013

  Actual Average Record
Temperature  
Mean Temperature 85 °F 81 °F  
Max Temperature 93 °F 91 °F 98 °F (1936)
Min Temperature 76 °F 72 °F 56 °F (1917)
Degree Days  
Heating Degree Days 0 0  
Month to date heating degree days 0 0  
Since 1 June heating degree days 0 0  
Since 1 July heating degree days 1551 1555  
Cooling Degree Days 20 16  
Month to date cooling degree days 267 245  
Year to date cooling degree days 690 810  
Since 1 June cooling degree days 267 245  
Growing Degree Days 33 (Base 50)    
Moisture  
Dew Point 74 °F    
Average Humidity 73    
Maximum Humidity 94    
Minimum Humidity 52    
Precipitation  
Precipitation 0.01 in 0.24 in 1.85 in (1940)
Month to date precipitation 3.25 3.21  
Year to date precipitation 41.43 27.73  
Snow  
Snow 0.00 in - - ()
Month to date snowfall 0.0  
Since 1 June snowfall 0.0  
Since 1 July snowfall 0.0  
Snow Depth 0.00 in    
Sea Level Pressure  
Sea Level Pressure 30.00 in    
Wind  
Wind Speed 7 mph (WSW)    
Max Wind Speed 14 mph    
Max Gust Speed 24 mph    
Visibility 10 miles    
Events Rain    
T = Trace of Precipitation, MM = Missing Value Source: NWS Daily Summary

Daily Weather History Graph

Daily Weather History Graph

Search for Another Location

Airport or City:

Trip Planner

Search our weather history database for the weather conditions in past years. The results will help you decide how hot, cold, wet, or windy it might be!

Date:

Astronomy

Jun. 16, 2013 Rise Set
Actual Time 6:01 AM CDT 8:08 PM CDT
Civil Twilight 5:34 AM CDT 8:36 PM CDT
Nautical Twilight 5:00 AM CDT 9:10 PM CDT
Astronomical Twilight 4:24 AM CDT 9:46 PM CDT
Moon 1:09 PM CDT (6/16) 12:40 AM CDT (6/16)
Length of Visible Light 15h 02m
Length of Day
14h 06m
Waxing Crescent, 50% of the Moon is Illuminated
Jun 16
Waxing Crescent
Jun 16
First Quarter
Jun 23
Full
Jun 29
Last Quarter
Jul 8
New

Hourly Weather History & Observations

Time (CDT) Temp. Heat Index Dew Point Humidity Pressure Visibility Wind Dir Wind Speed Gust Speed Precip Events Conditions
12:53 AM 78.1 °F - 75.0 °F 90% 29.99 in 10.0 mi Calm Calm - N/A   Scattered Clouds
1:53 AM 78.1 °F - 73.9 °F 87% 29.98 in 10.0 mi SE 3.5 mph - N/A   Clear
2:53 AM 78.1 °F - 75.0 °F 90% 29.96 in 10.0 mi SE 3.5 mph - N/A   Clear
3:53 AM 77.0 °F - 75.0 °F 94% 29.96 in 9.0 mi Calm Calm - N/A   Clear
4:53 AM 77.0 °F - 75.0 °F 94% 29.97 in 8.0 mi Calm Calm - N/A   Clear
5:53 AM 75.9 °F - 73.9 °F 94% 30.00 in 7.0 mi ENE 3.5 mph - N/A   Clear
6:53 AM 78.1 °F - 75.0 °F 90% 30.01 in 8.0 mi WSW 4.6 mph - N/A   Partly Cloudy
7:53 AM 81.0 °F 87.3 °F 75.9 °F 85% 30.04 in 10.0 mi West 6.9 mph - N/A   Partly Cloudy
8:53 AM 82.0 °F 89.4 °F 75.9 °F 82% 30.05 in 10.0 mi WSW 9.2 mph - N/A   Scattered Clouds
9:50 AM 84.2 °F 92.3 °F 75.2 °F 74% 30.05 in 10.0 mi WSW 11.5 mph - N/A   Mostly Cloudy
9:53 AM 84.0 °F 91.9 °F 75.0 °F 74% 30.05 in 10.0 mi WSW 10.4 mph - N/A   Mostly Cloudy
10:40 AM 87.8 °F 97.6 °F 75.2 °F 66% 30.04 in 10.0 mi West 9.2 mph - N/A   Mostly Cloudy
10:53 AM 87.1 °F 96.3 °F 75.0 °F 67% 30.04 in 10.0 mi West 9.2 mph - N/A   Mostly Cloudy
11:53 AM 89.1 °F 98.0 °F 73.9 °F 61% 30.04 in 10.0 mi WSW 9.2 mph - N/A   Scattered Clouds
12:53 PM 91.0 °F 99.3 °F 73.0 °F 55% 30.02 in 10.0 mi WSW 9.2 mph - N/A   Scattered Clouds
1:53 PM 91.0 °F 99.3 °F 73.0 °F 55% 30.00 in 10.0 mi WSW 9.2 mph - N/A   Scattered Clouds
2:53 PM 91.0 °F 98.2 °F 72.0 °F 53% 29.99 in 10.0 mi West 10.4 mph 27.6 mph N/A   Mostly Cloudy
3:53 PM 91.0 °F 97.6 °F 71.1 °F 52% 29.98 in 10.0 mi WNW 4.6 mph - N/A   Mostly Cloudy
4:53 PM 91.0 °F 99.3 °F 73.0 °F 55% 29.97 in 10.0 mi North - - N/A   Scattered Clouds
5:53 PM 88.0 °F 96.5 °F 73.9 °F 63% 29.96 in 10.0 mi North - - N/A Rain Rain
6:53 PM 87.1 °F 98.8 °F 77.0 °F 72% 29.96 in 10.0 mi WSW 5.8 mph - 0.01 in   Mostly Cloudy
7:53 PM 84.9 °F 94.1 °F 75.9 °F 74% 29.97 in 10.0 mi West 6.9 mph - N/A   Scattered Clouds
8:53 PM 82.9 °F 90.2 °F 75.0 °F 77% 29.96 in 10.0 mi SW 5.8 mph - N/A   Clear
9:53 PM 82.9 °F 88.8 °F 73.0 °F 72% 29.99 in 10.0 mi South 11.5 mph - N/A   Clear
10:53 PM 82.0 °F 86.3 °F 71.1 °F 69% 29.99 in 10.0 mi SSW 12.7 mph - N/A   Clear
11:53 PM 81.0 °F 85.2 °F 72.0 °F 74% 30.00 in 10.0 mi SW 10.4 mph - N/A   Clear